ATLAS 5 CENTAUR DEB, 44670

Orbit data source: Space-Track

ATLAS 5 CENTAUR DEB, 44670 is space debris in HEO originally from a launch on Wed, 17 Oct 2018 UTC launched from the Air Force Eastern Test Range (AFETR). Debris objects in space refer to the collection of defunct objects orbiting the Earth. Examples of debris include non-operational satellites, rocket bodies, and fragments generated from explosions, collisions, or faulty payload assembly.

Loading next visibility...
Identifier
44670, 2018-079AG
Orbit
HEO
Country
Flag of USUS
Related business
Flag of USUnited Launch Alliance/Lockheed Martin (US)
Manufacturer
ULA Decatur
Mission
Spacecraft
Bus & Motor
Unknown
Mass
Unknown
Launch date (UTC)
2018-10-17 (7 years ago)
Launch vehicle
Unknown
Launch site
Air Force Eastern Test Range (AFETR)
Object type
Payload
Rocket body
Debris
Shape & HBR
Unknown shape, 1.1 m
Radar Cross Section
Large (>1 m²)

Expand to show TLE details & history
Last TLE update: 1 day ago

TLE from 1 day ago
0 ATLAS 5 CENTAUR DEB
1 44670U 18079AG  25312.09236865 -.00000103  00000-0  00000+0 0  9992
2 44670  13.0482  54.1125 4636559 279.2359  32.9612  1.82911592 43013
Epoch: 2025-11-08T02:13Z
TLE epoch observation values (Epoch: 2025-11-08T02:13:00.651Z)
Latitude
0.00001°
Longitude
-26.76754°
Altitude
14,261.37 km
Speed
4.951 km/s
True Right ascension
03h 36m 02s
True Declination
0° 00' 00"
Sunlit
Object was in daylight at epoch
Visualization orbit readout
Latitude
Unknown
Longitude
Unknown
Altitude
Unknown
Speed
Unknown
Apparent Right ascension
Unknown
Apparent Declination
Unknown
Sunlit
N/A
Visualization observer readout
Local Sidereal Time
03:54:34
Azimuth
Unknown
Elevation
Unknown
Doppler factor
Unknown
Orbital elements
Apogee altitude
34,962.654 km
Perigee altitude
8,770.84 km
Semi-major axis
28,244.884 km
Eccentricity
0.46366
Inclination
13.0482°
RAAN
54.1125°
Arg. of periapsis
279.2359°
True anomaly
80.92991°
Mean anomaly
32.9612°
Eccentric anomaly
54.62119°
Mean motion
0.45723 °/min
Orbital period
787.35 mins
BSTAR
0
Loading maneuver chart data...
Computing Atmospheric mass density...

Documentation

Showing up to 5 results
|